TimeEST,TemperatureF,Dew PointF,Humidity,Sea Level PressureIn,VisibilityMPH,Wind Direction,Wind SpeedMPH,Gust SpeedMPH,PrecipitationIn,Events,Conditions,WindDirDegrees,DateUTC
12:53 AM,10.0,-4.0,53,29.97,10.0,WNW,6.9,-,N/A,,Clear,290,2013-02-18 05:53:00
1:53 AM,10.0,-4.0,53,30.00,10.0,West,6.9,-,N/A,,Clear,280,2013-02-18 06:53:00
2:53 AM,5.0,-2.0,73,30.03,10.0,Calm,Calm,-,N/A,,Clear,0,2013-02-18 07:53:00
3:53 AM,6.1,-2.9,67,30.05,10.0,Calm,Calm,-,N/A,,Clear,0,2013-02-18 08:53:00
4:53 AM,7.0,-5.1,58,30.08,10.0,NNW,6.9,-,N/A,,Clear,340,2013-02-18 09:53:00
5:53 AM,3.0,-4.0,73,30.11,10.0,South,3.5,-,N/A,,Clear,170,2013-02-18 10:53:00
6:53 AM,6.8,-5.8,56,30.11,10.0,North,6.9,-,N/A,,Clear,360,2013-02-18 11:53:00
7:53 AM,8.1,-4.0,58,30.18,10.0,NNE,3.5,-,N/A,,Clear,30,2013-02-18 12:53:00
8:53 AM,10.9,-2.0,56,30.20,10.0,South,4.6,-,N/A,,Clear,170,2013-02-18 13:53:00
9:53 AM,15.1,-2.9,45,30.19,10.0,Calm,Calm,-,N/A,,Clear,0,2013-02-18 14:53:00
10:53 AM,18.0,-6.0,35,30.19,10.0,SW,5.8,-,N/A,,Clear,230,2013-02-18 15:53:00
11:53 AM,21.9,-8.0,27,30.18,10.0,NE,5.8,-,N/A,,Clear,50,2013-02-18 16:53:00
12:53 PM,24.1,-8.0,24,30.16,10.0,Calm,Calm,-,N/A,,Clear,0,2013-02-18 17:53:00
1:53 PM,27.0,-2.0,29,30.14,10.0,SSE,4.6,-,N/A,,Clear,150,2013-02-18 18:53:00
2:53 PM,28.0,-4.0,25,30.15,10.0,SE,3.5,-,N/A,,Clear,130,2013-02-18 19:53:00
3:53 PM,30.0,-5.1,22,30.15,10.0,NE,3.5,-,N/A,,Clear,40,2013-02-18 20:53:00
4:53 PM,30.0,-7.1,20,30.16,10.0,West,5.8,-,N/A,,Clear,280,2013-02-18 21:53:00
5:53 PM,25.0,-2.9,30,30.18,10.0,Calm,Calm,-,N/A,,Clear,0,2013-02-18 22:53:00
6:53 PM,23.0,1.0,39,30.19,10.0,WNW,5.8,-,N/A,,Clear,290,2013-02-18 23:53:00
7:53 PM,18.0,5.0,57,30.19,10.0,Calm,Calm,-,N/A,,Clear,0,2013-02-19 00:53:00
8:53 PM,18.0,6.1,60,30.18,10.0,Calm,Calm,-,N/A,,Clear,0,2013-02-19 01:53:00
9:53 PM,17.1,5.0,59,30.18,10.0,Calm,Calm,-,N/A,,Clear,0,2013-02-19 02:53:00
10:53 PM,16.0,7.0,68,30.16,10.0,Calm,Calm,-,N/A,,Clear,0,2013-02-19 03:53:00
11:53 PM,15.1,8.1,74,30.18,10.0,Calm,Calm,-,N/A,,Clear,0,2013-02-19 04:53:00